Weather History for Kremmling, CO

Change the Weather History Date:

Saturday, March 17, 2012

  Actual Average (KEGE) Record (KEGE)
Temperature  
Mean Temperature 44 °F -  
Max Temperature 64 °F 49 °F 66 °F (2007)
Min Temperature 23 °F 21 °F -4 °F (1980)
Degree Days  
Heating Degree Days 22    
Moisture  
Dew Point 12 °F    
Average Humidity 43    
Maximum Humidity 80    
Minimum Humidity 7    
Precipitation  
Precipitation 0.00 in - - ()
Sea Level Pressure  
Sea Level Pressure 29.85 in    
Wind  
Wind Speed 3 mph (West)    
Max Wind Speed 18 mph    
Max Gust Speed 26 mph    
Visibility 10 miles    
Events      
Averages and records for this station are not official NWS values.
T = Trace of Precipitation, MM = Missing Value Source: NWS Daily Summary

Daily Weather History Graph

Daily Weather History Graph

Search for Another Location

Airport:

Trip Planner

Search our weather history database for the weather conditions in past years. The results will help you decide how hot, cold, wet, or windy it might be!

Date:

Astronomy

Mar. 17, 2012 Rise Set
Actual Time 7:12 AM MDT 7:15 PM MDT
Civil Twilight 6:45 AM MDT 7:42 PM MDT
Nautical Twilight 6:14 AM MDT 8:13 PM MDT
Astronomical Twilight 5:42 AM MDT 8:45 PM MDT
Moon 4:16 AM MDT (3/17) 2:41 PM MDT (3/17)
Length of Visible Light 12h 56m
Length of Day
12h 02m
Waning Crescent, 22% of the Moon is Illuminated
Mar 17
Waning Crescent
Mar 22
New
Mar 30
First Quarter
Apr 6
Full
Apr 13
Last Quarter

Hourly Weather History & Observations

Time (MDT) Temp. Windchill Dew Point Humidity Pressure Visibility Wind Dir Wind Speed Gust Speed Precip Events Conditions
12:17 AM 33.8 °F - 17.6 °F 52% 29.94 in 10.0 mi Calm Calm - N/A   Clear
12:36 AM 33.8 °F 30.8 °F 15.8 °F 48% 29.94 in 10.0 mi ENE 3.5 mph - N/A   Clear
12:56 AM 33.8 °F - 17.6 °F 52% 29.94 in 10.0 mi Calm Calm - N/A   Clear
1:37 AM 32.0 °F - 17.6 °F 55% 29.94 in 10.0 mi Calm Calm - N/A   Clear
1:57 AM 32.0 °F - 17.6 °F 55% 29.94 in 10.0 mi Calm Calm - N/A   Clear
2:17 AM 30.2 °F - 17.6 °F 60% 29.93 in 10.0 mi Calm Calm - N/A   Clear
2:37 AM 30.2 °F - 17.6 °F 60% 29.92 in 10.0 mi Calm Calm - N/A   Clear
2:57 AM 28.4 °F - 17.6 °F 64% 29.92 in 10.0 mi Calm Calm - N/A   Clear
3:17 AM 30.2 °F - 19.4 °F 64% 29.92 in 10.0 mi Calm Calm - N/A   Clear
3:37 AM 28.4 °F - 19.4 °F 69% 29.92 in 10.0 mi Calm Calm - N/A   Clear
3:56 AM 28.4 °F - 19.4 °F 69% 29.91 in 10.0 mi Calm Calm - N/A   Clear
4:16 AM 28.4 °F - 17.6 °F 64% 29.90 in 10.0 mi Calm Calm - N/A   Clear
4:36 AM 26.6 °F - 17.6 °F 69% 29.91 in 10.0 mi Calm Calm - N/A   Clear
4:57 AM 26.6 °F - 17.6 °F 69% 29.91 in 10.0 mi Calm Calm - N/A   Clear
5:17 AM 23.0 °F - 17.6 °F 80% 29.92 in 10.0 mi Calm Calm - N/A   Clear
5:37 AM 23.0 °F - 15.8 °F 74% 29.92 in 10.0 mi Calm Calm - N/A   Clear
5:57 AM 23.0 °F - 15.8 °F 74% 29.92 in 10.0 mi Calm Calm - N/A   Clear
6:17 AM 23.0 °F - 17.6 °F 80% 29.92 in 10.0 mi Calm Calm - N/A   Clear
6:37 AM 23.0 °F - 17.6 °F 80% 29.92 in 10.0 mi Calm Calm - N/A   Clear
6:57 AM 23.0 °F - 17.6 °F 80% 29.92 in 10.0 mi Calm Calm - N/A   Clear
7:17 AM 23.0 °F - 17.6 °F 80% 29.92 in 10.0 mi Calm Calm - N/A   Clear
7:37 AM 24.8 °F - 17.6 °F 74% 29.92 in 10.0 mi Calm Calm - N/A   Clear
7:57 AM 26.6 °F 22.6 °F 19.4 °F 74% 29.92 in 10.0 mi South 3.5 mph - N/A   Clear
8:17 AM 26.6 °F - 21.2 °F 80% 29.92 in 10.0 mi Calm Calm - N/A   Clear
8:36 AM 30.2 °F - 21.2 °F 69% 29.92 in 10.0 mi Calm Calm - N/A   Clear
8:57 AM 32.0 °F - 21.2 °F 64% 29.91 in 10.0 mi Calm Calm - N/A   Clear
9:17 AM 33.8 °F - 21.2 °F 60% 29.90 in 10.0 mi Calm Calm - N/A   Clear
9:37 AM 35.6 °F - 19.4 °F 52% 29.90 in 10.0 mi Calm Calm - N/A   Clear
9:57 AM 37.4 °F - 19.4 °F 48% 29.89 in 10.0 mi Calm Calm - N/A   Clear
10:36 AM 42.8 °F - 15.8 °F 34% 29.87 in 10.0 mi Calm Calm - N/A   Clear
10:57 AM 44.6 °F 43.1 °F 15.8 °F 31% 29.86 in 10.0 mi NNW 3.5 mph - N/A   Clear
11:37 AM 50.0 °F - 14.0 °F 24% 29.84 in 10.0 mi Calm Calm - N/A   Clear
11:57 AM 51.8 °F - 15.8 °F 24% 29.81 in 10.0 mi NNW 3.5 mph - N/A   Clear
12:17 PM 55.4 °F - 14.0 °F 20% 29.80 in 10.0 mi Calm Calm - N/A   Clear
12:37 PM 59.0 °F - 6.8 °F 13% 29.79 in 10.0 mi ENE 3.5 mph - N/A   Clear
12:56 PM 60.8 °F - 5.0 °F 11% 29.78 in 10.0 mi Calm Calm - N/A   Clear
1:17 PM 60.8 °F - 1.4 °F 9% 29.78 in 10.0 mi Calm Calm - N/A   Clear
1:37 PM 62.6 °F - 1.4 °F 9% 29.77 in 10.0 mi WSW 13.8 mph 21.9 mph N/A   Clear
1:57 PM 62.6 °F - -0.4 °F 8% 29.76 in 10.0 mi West 8.1 mph 21.9 mph N/A   Clear
2:17 PM 62.6 °F - -0.4 °F 8% 29.75 in 10.0 mi SW 17.3 mph 20.7 mph N/A   Clear
2:37 PM 62.6 °F - -0.4 °F 8% 29.74 in 10.0 mi West 16.1 mph 25.3 mph N/A   Clear
2:56 PM 62.6 °F - -2.2 °F 7% 29.73 in 10.0 mi West 13.8 mph 21.9 mph N/A   Clear
3:17 PM 62.6 °F - -4.0 °F 7% 29.73 in 10.0 mi WSW 12.7 mph 17.3 mph N/A   Clear
3:36 PM 64.4 °F - -2.2 °F 7% 29.72 in 10.0 mi WNW 9.2 mph 21.9 mph N/A   Clear
3:57 PM 64.4 °F - -2.2 °F 7% 29.72 in 10.0 mi West 13.8 mph 23.0 mph N/A   Clear
4:16 PM 62.6 °F - -2.2 °F 7% 29.72 in 10.0 mi WSW 17.3 mph 23.0 mph N/A   Clear
4:35 PM 62.6 °F - -0.4 °F 8% 29.72 in 10.0 mi West 18.4 mph 26.5 mph N/A   Clear
4:57 PM 62.6 °F - -0.4 °F 8% 29.72 in 10.0 mi West 15.0 mph 26.5 mph N/A   Clear
5:01 PM 60.8 °F - -0.4 °F 8% 29.72 in 10.0 mi West 15.0 mph 26.5 mph N/A   Clear
5:37 PM 59.0 °F - 3.2 °F 11% 29.71 in 10.0 mi WSW 17.3 mph 24.2 mph N/A   Clear
5:56 PM 59.0 °F - 1.4 °F 10% 29.72 in 10.0 mi West 11.5 mph 25.3 mph N/A   Clear
6:12 PM 55.4 °F - 3.2 °F 12% 29.72 in 10.0 mi WSW 15.0 mph - N/A   Clear
6:33 PM 55.4 °F - 5.0 °F 13% 29.72 in 10.0 mi WSW 11.5 mph 18.4 mph N/A   Clear
6:57 PM 53.6 °F - 6.8 °F 15% 29.72 in 10.0 mi WSW 11.5 mph - N/A   Clear
7:17 PM 51.8 °F - 8.6 °F 18% 29.72 in 10.0 mi WSW 6.9 mph - N/A   Clear
7:35 PM 50.0 °F - 10.4 °F 20% 29.72 in 10.0 mi WSW 5.8 mph - N/A   Clear
7:57 PM 50.0 °F - 10.4 °F 20% 29.72 in 10.0 mi East 3.5 mph - N/A   Clear
8:15 PM 46.4 °F 44.3 °F 10.4 °F 23% 29.73 in 10.0 mi East 4.6 mph - N/A   Clear
8:37 PM 42.8 °F - 10.4 °F 27% 29.73 in 10.0 mi Calm Calm - N/A   Clear
8:54 PM 46.4 °F 41.9 °F 12.2 °F 25% 29.74 in 10.0 mi WSW 9.2 mph - N/A   Clear
9:17 PM 48.2 °F - 12.2 °F 24% 29.74 in 10.0 mi WSW 11.5 mph 16.1 mph N/A   Clear
9:37 PM 46.4 °F 44.3 °F 10.4 °F 23% 29.75 in 10.0 mi West 4.6 mph - N/A   Clear
9:55 PM 41.0 °F 38.0 °F 10.4 °F 29% 29.75 in 10.0 mi East 4.6 mph - N/A   Clear
10:15 PM 42.8 °F - 10.4 °F 27% 29.75 in 10.0 mi Calm Calm - N/A   Clear
10:36 PM 41.0 °F 39.0 °F 10.4 °F 29% 29.75 in 10.0 mi NE 3.5 mph - N/A   Clear
11:16 PM 39.2 °F 37.0 °F 10.4 °F 31% 29.74 in 10.0 mi ENE 3.5 mph - N/A   Clear
11:37 PM 37.4 °F - 12.2 °F 36% 29.72 in 10.0 mi Calm Calm - N/A   Clear
11:57 PM 35.6 °F 30.7 °F 14.0 °F 41% 29.73 in 10.0 mi West 5.8 mph - N/A   Clear